Time,TemperatureF,DewpointF,PressureIn,WindDirection,WindDirectionDegrees,WindSpeedMPH,WindSpeedGustMPH,Humidity,HourlyPrecipIn,Conditions,Clouds,dailyrainin,SolarRadiationWatts/m^2,SoftwareType,DateUTC
2013-08-27 00:02:00,77.0,62.0,-100.00,South,186,3.0,5.0,60,0.00,,,0.00,0.000000,,2013-08-27 06:02:00,
2013-08-27 00:12:00,77.0,62.0,-100.00,South,186,3.0,5.0,60,0.00,,,0.00,0.000000,,2013-08-27 06:12:00,
2013-08-27 00:22:00,77.0,62.0,-100.00,South,186,3.0,5.0,60,0.00,,,0.00,0.000000,,2013-08-27 06:22:00,
2013-08-27 00:52:00,78.0,65.0,-100.00,South,176,2.0,6.0,64,0.00,,,0.00,0.000000,,2013-08-27 06:52:00,
2013-08-27 01:02:00,78.0,65.0,-100.00,South,176,2.0,6.0,64,0.00,,,0.00,0.000000,,2013-08-27 07:02:00,
2013-08-27 01:12:00,78.0,65.0,-100.00,South,176,2.0,6.0,64,0.00,,,0.00,0.000000,,2013-08-27 07:12:00,
2013-08-27 01:21:00,78.0,65.0,-100.00,South,176,2.0,6.0,64,0.00,,,0.00,0.000000,,2013-08-27 07:21:00,
2013-08-27 01:52:00,77.0,65.0,-100.00,SSE,164,3.0,8.0,67,0.00,,,0.00,0.000000,,2013-08-27 07:52:00,
2013-08-27 02:02:00,77.0,65.0,-100.00,SSE,164,3.0,8.0,67,0.00,,,0.00,0.000000,,2013-08-27 08:02:00,
2013-08-27 02:11:00,77.0,65.0,-100.00,SSE,164,3.0,8.0,67,0.00,,,0.00,0.000000,,2013-08-27 08:11:00,
2013-08-27 02:22:00,77.0,65.0,-100.00,SSE,164,3.0,8.0,67,0.00,,,0.00,0.000000,,2013-08-27 08:22:00,
2013-08-27 02:52:00,76.0,67.0,-100.00,South,179,4.0,9.0,73,0.00,,,0.00,0.000000,,2013-08-27 08:52:00,
2013-08-27 03:01:00,76.0,67.0,-100.00,South,179,4.0,9.0,73,0.00,,,0.00,0.000000,,2013-08-27 09:01:00,
2013-08-27 03:11:00,76.0,67.0,-100.00,South,179,4.0,9.0,73,0.00,,,0.00,0.000000,,2013-08-27 09:11:00,
2013-08-27 03:21:00,76.0,67.0,-100.00,South,179,4.0,9.0,73,0.00,,,0.00,0.000000,,2013-08-27 09:21:00,
2013-08-27 03:24:00,75.0,67.0,-100.00,South,188,3.0,8.0,75,0.00,,,0.00,0.000000,,2013-08-27 09:24:00,
2013-08-27 03:54:00,75.0,67.0,-100.00,South,188,3.0,8.0,75,0.00,,,0.00,0.000000,,2013-08-27 09:54:00,
2013-08-27 04:05:00,75.0,67.0,-100.00,South,188,3.0,8.0,75,0.00,,,0.00,0.000000,,2013-08-27 10:05:00,
2013-08-27 04:14:00,75.0,67.0,-100.00,South,188,3.0,8.0,75,0.00,,,0.00,0.000000,,2013-08-27 10:14:00,
2013-08-27 04:53:00,75.0,67.0,-100.00,SW,218,3.0,7.0,76,0.00,,,0.00,0.000000,,2013-08-27 10:53:00,
2013-08-27 05:03:00,75.0,67.0,-100.00,SW,218,3.0,7.0,76,0.00,,,0.00,0.000000,,2013-08-27 11:03:00,
2013-08-27 05:12:00,75.0,67.0,-100.00,SW,218,3.0,7.0,76,0.00,,,0.00,0.000000,,2013-08-27 11:12:00,
2013-08-27 05:22:00,75.0,67.0,-100.00,SW,218,3.0,7.0,76,0.00,,,0.00,0.000000,,2013-08-27 11:22:00,
2013-08-27 05:52:00,74.0,64.0,-100.00,SE,132,1.0,8.0,70,0.00,,,0.00,0.000000,,2013-08-27 11:52:00,
2013-08-27 06:02:00,74.0,64.0,-100.00,SE,132,1.0,8.0,70,0.00,,,0.00,0.000000,,2013-08-27 12:02:00,
2013-08-27 06:12:00,74.0,64.0,-100.00,SE,132,1.0,8.0,70,0.00,,,0.00,0.000000,,2013-08-27 12:12:00,
2013-08-27 06:21:00,74.0,64.0,-100.00,SE,132,1.0,8.0,70,0.00,,,0.00,0.000000,,2013-08-27 12:21:00,
2013-08-27 06:52:00,70.0,61.0,-100.00,WNW,299,13.0,25.0,72,0.04,,,0.04,0.000000,,2013-08-27 12:52:00,
2013-08-27 07:01:00,70.0,61.0,-100.00,WNW,299,13.0,25.0,72,0.04,,,0.04,0.000000,,2013-08-27 13:01:00,
2013-08-27 07:11:00,70.0,61.0,-100.00,WNW,299,13.0,25.0,72,0.04,,,0.04,0.000000,,2013-08-27 13:11:00,
2013-08-27 07:22:00,70.0,61.0,-100.00,WNW,299,13.0,25.0,72,0.04,,,0.04,0.000000,,2013-08-27 13:22:00,
2013-08-27 07:52:00,69.0,63.0,-100.00,NW,310,6.0,14.0,81,0.03,,,0.07,8.000000,,2013-08-27 13:52:00,
2013-08-27 08:02:00,69.0,63.0,-100.00,NW,310,6.0,14.0,81,0.03,,,0.07,8.000000,,2013-08-27 14:02:00,
2013-08-27 08:11:00,69.0,63.0,-100.00,NW,310,6.0,14.0,81,0.03,,,0.07,8.000000,,2013-08-27 14:11:00,
2013-08-27 08:22:00,69.0,63.0,-100.00,NW,310,6.0,14.0,81,0.03,,,0.07,8.000000,,2013-08-27 14:22:00,
2013-08-27 08:53:00,69.0,61.0,-100.00,NW,315,4.0,10.0,77,0.00,,,0.07,32.000000,,2013-08-27 14:53:00,
2013-08-27 09:01:00,69.0,61.0,-100.00,NW,315,4.0,10.0,77,0.00,,,0.07,32.000000,,2013-08-27 15:01:00,
2013-08-27 09:11:00,69.0,61.0,-100.00,NW,315,4.0,10.0,77,0.00,,,0.07,32.000000,,2013-08-27 15:11:00,
2013-08-27 09:22:00,69.0,61.0,-100.00,NW,315,4.0,10.0,77,0.00,,,0.07,32.000000,,2013-08-27 15:22:00,
2013-08-27 09:24:00,73.0,62.0,-100.00,NW,318,4.0,10.0,69,0.00,,,-99.99,51.000000,,2013-08-27 15:24:00,
2013-08-27 09:58:00,73.0,62.0,-100.00,NW,318,4.0,10.0,69,0.00,,,-99.99,51.000000,,2013-08-27 15:58:00,
2013-08-27 10:09:00,73.0,62.0,-100.00,NW,318,4.0,10.0,69,0.00,,,-99.99,51.000000,,2013-08-27 16:09:00,
2013-08-27 10:17:00,73.0,62.0,-100.00,NW,318,4.0,10.0,69,0.00,,,-99.99,51.000000,,2013-08-27 16:17:00,
2013-08-27 10:55:00,72.0,62.0,-100.00,North,10,2.0,8.0,72,0.00,,,0.07,48.000000,,2013-08-27 16:55:00,
2013-08-27 11:04:00,72.0,62.0,-100.00,North,10,2.0,8.0,72,0.00,,,0.07,48.000000,,2013-08-27 17:04:00,
2013-08-27 11:13:00,72.0,62.0,-100.00,North,10,2.0,8.0,72,0.00,,,0.07,48.000000,,2013-08-27 17:13:00,
2013-08-27 11:23:00,72.0,62.0,-100.00,North,10,2.0,8.0,72,0.00,,,0.07,48.000000,,2013-08-27 17:23:00,
2013-08-27 12:12:00,68.0,65.0,-100.00,SSE,148,4.0,8.0,90,0.03,,,0.10,45.000000,,2013-08-27 18:12:00,
2013-08-27 12:22:00,68.0,65.0,-100.00,SSE,148,4.0,8.0,90,0.03,,,0.10,45.000000,,2013-08-27 18:22:00,
2013-08-27 12:53:00,73.0,62.0,-100.00,SE,135,5.0,9.0,69,-99.99,,,0.10,187.000000,,2013-08-27 18:53:00,
2013-08-27 13:01:00,73.0,62.0,-100.00,SE,135,5.0,9.0,69,-99.99,,,0.10,187.000000,,2013-08-27 19:01:00,
2013-08-27 13:11:00,73.0,62.0,-100.00,SE,135,5.0,9.0,69,-99.99,,,0.10,187.000000,,2013-08-27 19:11:00,
2013-08-27 13:22:00,73.0,62.0,-100.00,SE,135,5.0,9.0,69,-99.99,,,0.10,187.000000,,2013-08-27 19:22:00,
2013-08-27 13:52:00,79.0,63.0,-100.00,East,90,2.0,9.0,58,-99.99,,,0.10,441.000000,,2013-08-27 19:52:00,
2013-08-27 14:02:00,79.0,63.0,-100.00,East,90,2.0,9.0,58,-99.99,,,0.10,441.000000,,2013-08-27 20:02:00,
2013-08-27 14:12:00,79.0,63.0,-100.00,East,90,2.0,9.0,58,-99.99,,,0.10,441.000000,,2013-08-27 20:12:00,